Theta_e
331 331 331 331 332 332 331 330 329 329 328 328 326 324 324 321 318 316 316 315 314 313 313 312 310 310 310 310 309 308 308 306 305 305 303 302 302 305 313 313 311 310 311 312 314 316 318 320 322 325 329 331 332 334 334 333 333 333 325 325 325 327 328 325 324 323 321 320 321 321 321 321 321 321 320 321 321 322 324 323 323 324 324 325 325
330 330 328 327 328 327 327 327 328 327 328 327 326 324 321 320 318 318 316 315 314 313 313 312 311 311 310 310 309 309 308 308 306 305 304 303 302 303 311 311 312 310 310 311 312 314 315 317 318 320 322 325 328 331 332 333 332 332 329 326 326 326 328 326 325 323 322 322 320 320 320 321 321 320 320 320 320 321 322 323 322 321 321 322 323
325 325 324 324 323 323 324 324 322 322 324 323 322 321 319 318 318 318 317 316 315 314 314 313 311 311 310 311 310 309 308 306 305 305 303 302 302 301 305 310 312 312 311 310 311 312 313 315 316 317 318 322 324 326 327 328 329 331 333 333 332 328 327 328 326 325 324 322 322 320 320 320 320 321 321 320 319 320 321 321 321 321 321 321 321
323 322 323 322 322 320 319 320 320 320 321 321 321 321 320 319 319 318 319 318 316 314 313 312 311 310 311 311 310 309 308 307 307 305 304 302 302 301 300 304 309 313 312 312 311 312 314 314 314 316 317 318 318 319 319 321 325 327 330 332 333 332 331 330 328 326 325 324 323 322 320 319 320 320 320 320 320 319 319 319 320 321 320 320 321
321 320 319 319 318 317 317 316 318 319 320 321 321 321 320 319 319 319 318 317 317 315 315 314 314 312 311 310 309 309 308 308 306 306 305 304 302 301 301 301 300 310 312 312 311 312 312 311 311 313 315 315 315 316 316 317 319 323 326 328 330 332 332 332 330 327 325 324 324 323 321 320 320 320 320 320 319 320 319 318 318 319 319 320 320
320 319 318 317 316 315 314 315 316 317 317 318 318 318 318 317 316 317 316 316 316 315 313 313 311 311 311 310 308 307 307 307 307 306 305 304 303 302 301 301 299 300 302 310 312 310 311 311 311 312 312 312 313 314 316 317 317 319 321 322 326 328 330 330 330 329 328 326 325 324 322 321 320 320 320 319 319 320 320 319 319 319 319 319 319
316 317 316 315 314 313 312 313 313 313 313 313 315 315 314 312 313 313 313 316 313 309 308 308 308 308 308 309 309 308 307 307 306 304 303 302 302 301 301 300 300 299 299 297 303 307 311 310 311 313 313 313 314 315 316 317 317 317 318 320 321 321 323 324 326 329 329 328 328 327 323 322 321 321 320 320 320 320 320 320 320 319 319 319 319
311 313 312 312 311 310 310 310 311 310 310 311 311 312 314 312 310 308 307 305 304 303 302 301 302 304 305 306 306 306 305 305 303 302 302 302 300 300 300 300 300 299 301 298 298 303 309 311 311 311 312 311 313 314 316 317 318 318 318 318 318 318 318 319 320 324 326 327 328 327 324 323 322 321 321 320 320 319 319 319 320 320 320 319 319
307 307 307 307 306 306 306 306 307 307 306 306 307 307 307 310 306 304 303 301 301 300 300 300 301 302 303 303 304 304 304 303 300 300 301 299 298 299 299 299 299 302 298 298 298 298 303 307 309 309 311 311 310 312 313 315 315 316 317 318 318 319 318 318 319 319 321 323 326 327 328 326 323 322 322 321 321 320 319 319 320 320 319 319 319
306 306 305 305 305 305 305 305 305 304 304 304 304 305 306 305 303 301 301 299 298 298 298 298 300 301 302 302 302 302 301 299 300 300 299 298 297 298 298 297 298 298 298 298 298 298 299 301 305 305 305 308 308 311 312 313 313 315 317 316 316 318 318 318 318 318 318 319 321 324 326 327 327 325 323 322 322 321 320 320 320 320 320 320 320
305 305 304 304 303 303 303 303 303 302 302 301 301 301 301 303 302 301 300 298 297 297 296 297 298 300 301 300 300 300 299 298 299 299 298 298 298 299 299 298 298 298 298 298 298 298 298 298 297 297 298 305 307 308 309 311 310 312 313 315 315 316 315 315 316 317 317 317 317 318 320 323 325 326 326 326 324 322 321 321 321 321 321 320 320
301 302 302 302 302 302 302 302 301 300 299 298 298 298 298 298 300 299 297 296 296 296 296 295 297 296 297 299 300 299 298 297 298 298 298 298 297 297 297 296 296 296 298 298 298 298 298 297 297 297 298 301 305 307 307 307 309 308 313 315 315 315 315 314 314 314 315 315 316 317 318 318 319 321 324 326 326 327 326 322 321 322 322 321 321
297 297 298 299 299 299 299 298 297 297 296 295 295 295 296 297 297 298 296 295 295 295 295 295 294 294 295 298 298 299 298 297 296 296 297 297 296 297 295 293 293 294 296 296 296 296 296 295 296 297 297 297 298 302 305 306 307 307 311 312 313 314 315 315 315 314 315 315 316 316 317 318 318 318 318 320 323 325 326 326 325 324 324 322 321
294 294 294 295 294 294 294 293 293 293 293 293 292 293 293 294 295 295 296 295 293 294 294 294 291 290 290 293 294 295 296 295 295 296 298 297 297 297 293 291 291 293 295 294 294 294 293 293 295 296 296 297 297 297 298 298 299 306 308 308 311 315 315 316 315 316 315 315 316 316 317 317 318 319 319 319 319 319 321 324 325 325 324 324 323
292 293 293 292 292 292 291 291 291 291 290 290 290 290 290 290 291 291 292 292 294 293 291 292 289 291 291 291 290 292 294 291 293 295 295 296 296 295 293 290 290 291 294 291 292 292 291 290 293 294 295 295 296 297 297 298 297 302 305 305 307 312 313 314 314 314 313 313 313 313 314 315 316 318 318 319 320 320 320 320 321 323 325 325 323
291 291 291 291 291 290 290 290 290 290 289 288 289 289 289 289 289 289 289 287 288 289 290 289 289 290 286 288 289 288 284 286 288 291 289 295 294 294 292 290 289 289 293 289 291 291 289 289 290 293 293 294 295 295 296 296 298 300 300 300 305 308 311 312 313 312 312 312 312 312 313 313 313 315 316 317 318 319 320 321 321 321 322 324 325
290 290 290 290 290 290 289 288 289 289 288 288 288 288 288 288 288 287 287 286 286 285 287 288 288 289 289 286 285 284 284 286 287 287 288 289 289 289 292 288 288 288 290 288 289 290 288 288 289 291 291 292 294 295 296 296 296 296 297 299 303 304 304 307 308 309 310 311 311 311 311 312 312 313 314 315 316 318 318 319 320 321 321 321 323
289 289 289 289 289 289 288 288 287 288 288 288 287 288 288 288 288 287 287 287 286 284 284 286 287 288 288 287 288 286 284 286 283 280 286 287 286 287 288 287 287 287 288 287 288 289 289 288 289 290 290 291 293 294 294 295 296 295 297 298 301 303 303 304 307 307 307 307 307 307 308 310 310 311 312 312 313 314 316 317 319 320 321 321 321
288 289 289 289 289 288 288 288 288 287 288 288 288 287 288 288 288 287 287 288 286 284 284 284 284 286 287 286 286 285 287 285 282 282 278 280 284 285 286 286 286 286 287 286 287 287 288 288 288 289 289 290 291 292 293 294 297 300 302 301 302 302 302 302 302 304 306 306 306 306 306 306 307 309 311 312 312 312 312 313 315 317 319 320 321
288 288 288 288 288 288 287 287 287 287 287 287 287 287 287 288 287 287 287 287 286 284 283 284 283 284 286 285 284 285 284 283 283 281 279 278 279 282 284 284 284 285 286 286 286 286 286 286 287 288 287 288 290 290 291 292 292 293 294 301 302 302 301 301 301 301 302 304 306 306 305 305 306 306 308 310 311 312 312 312 312 313 315 317 319
288 287 287 287 287 287 286 286 286 286 286 287 286 286 286 286 286 285 285 286 286 285 284 283 284 283 283 283 283 282 282 282 282 282 279 277 277 278 280 282 282 283 284 285 286 286 286 286 287 288 288 288 289 289 289 290 289 290 295 301 302 302 301 300 300 299 299 300 303 305 306 306 305 306 306 307 308 310 311 312 312 312 313 314 316
286 287 286 287 286 286 286 285 285 286 286 285 285 285 285 285 285 285 285 284 285 285 285 284 284 284 283 283 282 281 279 280 279 280 279 279 278 278 280 279 279 280 283 283 284 285 285 286 287 287 287 287 288 288 288 289 289 290 293 300 301 301 301 300 299 299 299 299 300 301 304 305 306 306 306 306 307 308 309 310 312 313 313 314 314
285 285 286 286 286 286 285 285 285 285 285 285 284 284 284 284 285 284 284 284 284 283 284 284 283 282 282 282 281 282 281 280 279 280 279 277 277 277 279 279 279 279 280 282 284 284 284 286 287 287 287 287 287 288 287 287 290 292 295 298 299 299 299 299 298 298 298 298 299 300 301 303 304 305 307 307 307 307 307 308 309 310 312 313 313
285 284 284 285 285 285 284 284 284 284 284 284 284 284 284 284 283 283 283 283 283 283 282 282 282 282 281 281 281 282 282 282 282 281 280 279 279 277 277 279 278 279 282 282 282 282 283 284 285 286 286 286 287 288 288 289 289 293 292 293 298 298 299 298 298 297 297 298 298 299 300 301 302 302 304 305 307 307 307 306 307 307 308 310 312
283 283 283 284 284 283 284 283 283 283 284 284 283 284 284 283 283 282 282 282 282 282 281 281 281 281 282 281 281 282 282 282 282 281 281 280 279 277 278 278 277 278 279 280 279 280 282 282 284 285 286 287 288 288 288 288 286 290 293 290 295 297 296 296 296 296 297 297 298 298 299 300 301 302 303 303 304 306 306 306 306 306 307 307 308
283 283 284 284 284 284 284 283 283 283 283 283 283 283 283 282 282 282 281 282 282 281 281 281 281 281 281 280 280 281 281 282 280 282 280 279 278 277 277 277 277 277 278 278 279 279 279 282 282 284 284 284 285 285 286 286 286 290 292 289 289 293 294 294 295 296 296 297 297 298 298 298 300 301 301 303 304 304 305 305 305 306 306 306 307
283 283 284 283 283 283 283 282 282 282 282 282 282 282 282 282 282 281 281 281 281 281 280 279 281 280 279 280 281 281 280 280 280 281 281 281 279 278 278 276 276 275 276 278 277 277 278 281 282 282 283 283 284 284 285 285 287 290 290 287 286 290 292 294 295 296 296 296 297 297 297 297 297 298 299 299 301 302 304 305 305 305 305 305 305
283 283 283 282 282 282 282 282 282 282 281 281 280 280 280 280 280 279 279 282 279 279 278 278 278 279 278 279 278 278 280 280 281 280 280 281 280 279 278 277 275 274 276 275 275 276 278 278 281 281 281 282 284 283 286 286 285 289 288 286 286 287 291 293 294 296 296 296 296 296 296 296 297 297 297 298 298 299 299 301 301 301 301 302 303
284 283 282 281 282 281 281 281 281 281 280 280 279 279 279 278 279 278 278 278 278 278 278 278 278 278 278 278 278 279 279 279 279 280 280 279 280 280 279 277 277 275 273 273 274 275 276 278 278 279 282 282 283 284 283 283 285 287 285 285 285 285 289 292 294 295 296 296 295 295 295 296 296 296 296 297 297 298 299 299 300 301 301 302 303
283 283 282 281 281 281 280 279 279 279 279 278 278 277 278 278 278 277 278 277 277 278 278 278 278 278 278 278 278 279 279 278 279 278 278 279 279 279 279 278 278 275 274 273 274 276 276 278 278 279 281 281 283 283 283 283 286 286 284 284 284 284 290 291 292 292 293 294 294 294 295 294 295 295 295 296 297 298 298 299 299 300 300 301 303
281 280 280 279 279 279 278 278 278 278 277 277 277 277 277 276 277 277 277 277 276 276 277 277 278 278 277 277 277 278 278 278 278 278 278 278 279 278 277 278 278 277 276 275 273 276 277 276 278 279 280 280 281 281 282 282 284 285 283 283 283 287 288 286 288 289 291 292 292 292 293 294 294 295 295 295 296 297 297 298 298 299 299 300 301
279 279 278 278 278 278 277 278 277 277 277 276 276 276 276 276 276 277 276 276 276 275 276 277 278 278 276 276 276 277 277 277 277 277 277 277 278 278 277 277 277 277 277 275 274 274 278 277 278 278 278 279 280 279 280 281 283 285 282 282 282 285 283 283 286 288 289 290 291 292 293 293 294 294 294 294 295 296 296 297 297 298 298 299 299
278 278 278 277 277 277 277 277 276 276 276 276 276 275 275 275 275 275 276 276 275 275 275 275 275 276 276 275 275 276 276 276 276 276 277 276 276 276 277 276 276 276 275 274 273 273 276 277 277 277 277 278 278 278 278 279 279 280 282 281 281 281 282 282 283 285 286 288 289 290 291 292 293 294 295 294 294 296 296 297 297 296 297 298 299
278 278 277 277 276 276 276 276 276 275 275 275 275 275 275 274 274 277 277 275 274 274 274 274 274 276 275 274 275 275 275 275 275 275 275 275 275 275 275 276 274 275 275 274 273 273 272 275 275 276 276 278 276 278 276 277 277 279 278 279 280 280 280 280 280 281 285 286 288 289 291 292 294 295 295 293 294 295 296 296 295 295 295 296 296
277 276 276 276 276 276 275 276 275 275 275 275 275 275 274 274 273 273 275 273 273 273 273 273 274 274 274 274 274 274 276 274 274 274 274 274 275 274 274 274 274 274 274 274 273 272 272 273 275 275 275 275 275 276 276 277 277 278 277 277 278 279 279 279 279 280 284 287 289 289 289 289 290 291 291 292 292 292 293 294 294 294 294 295 295
276 276 276 276 276 275 275 274 274 274 274 274 274 274 274 273 273 273 273 273 273 273 273 273 273 273 273 273 273 273 274 273 273 273 274 274 274 274 273 273 273 273 274 274 274 273 273 272 273 274 275 274 274 276 276 276 276 276 276 276 277 277 277 279 279 280 283 285 286 286 286 287 287 288 289 290 291 291 292 292 292 293 293 293 293
276 275 276 275 275 275 275 274 274 273 273 274 274 273 273 273 273 272 272 272 273 273 273 274 276 274 273 273 273 273 273 273 273 272 273 272 273 273 272 272 273 273 274 274 273 273 272 271 272 273 274 273 274 274 274 274 274 275 275 275 276 276 277 278 279 279 281 283 283 283 284 285 286 287 287 288 289 291 291 292 292 292 292 293 293
275 275 275 274 274 273 273 273 272 273 272 273 272 272 272 272 272 272 272 272 273 273 273 274 273 273 273 273 273 273 273 272 272 272 272 272 272 272 272 272 272 272 272 272 272 272 272 271 271 271 272 272 272 273 274 274 273 273 273 274 275 276 276 275 276 277 278 278 278 279 281 282 283 284 286 286 288 288 289 290 290 291 290 289 289
273 273 273 273 274 272 273 272 272 272 272 272 272 272 272 272 272 272 272 272 273 273 273 273 273 273 273 273 273 273 273 272 272 272 272 272 272 272 272 272 272 272 271 271 271 271 271 271 271 271 271 272 272 271 273 274 273 273 272 272 272 274 274 274 274 276 276 277 279 281 281 281 282 282 283 285 286 286 287 288 288 288 287 287 287
273 272 272 272 272 272 272 271 272 272 271 271 271 271 271 271 272 272 272 273 273 273 273 273 273 273 273 273 273 273 273 273 272 272 272 272 273 272 273 273 273 273 272 272 271 271 271 271 270 270 271 271 271 272 273 272 271 271 272 271 270 271 272 274 274 274 275 276 275 276 279 280 280 281 283 283 283 284 284 284 284 285 285 286 287
274 272 272 272 272 271 271 271 271 272 272 272 271 270 270 271 272 272 273 272 272 272 272 272 273 273 273 273 273 272 274 277 278 277 277 277 274 272 273 273 273 272 272 271 271 270 270 270 269 270 270 269 270 270 270 270 270 270 271 272 271 272 273 273 274 275 275 275 275 275 276 277 277 277 277 277 279 281 281 282 283 283 283 285 287
272 272 271 271 271 271 271 270 270 271 271 272 274 275 275 273 274 274 274 273 272 272 272 271 271 272 272 272 273 276 276 276 276 277 277 277 277 275 273 273 273 272 272 271 271 270 270 269 268 268 268 268 269 270 270 271 272 272 271 272 271 272 273 272 273 274 276 275 274 274 275 277 277 277 277 276 278 279 278 279 279 281 283 286 287
271 271 271 271 270 271 271 270 270 271 271 271 275 276 277 277 275 274 273 273 273 272 271 270 270 271 271 272 272 273 274 275 274 275 276 276 276 276 276 276 276 274 272 271 271 271 270 269 269 269 269 269 270 271 271 272 272 272 271 272 272 272 271 270 269 273 276 276 275 274 275 277 277 275 276 276 277 277 278 278 282 284 285 287 287
270 270 270 270 270 270 270 269 269 270 270 274 276 276 276 277 276 275 274 273 273 272 272 271 271 271 271 271 272 272 272 272 272 272 272 274 274 275 275 276 276 276 276 273 271 270 270 269 269 270 270 270 271 272 272 272 272 272 272 272 272 272 271 271 271 271 275 277 275 274 274 277 277 276 275 276 277 277 278 282 284 284 285 286 286
270 269 270 270 269 269 269 269 268 269 269 274 275 276 276 276 276 276 274 273 272 272 272 272 272 271 270 270 270 270 270 273 272 270 270 270 272 274 274 275 274 275 275 276 276 273 273 271 270 270 271 271 271 271 272 272 274 272 272 272 272 272 272 272 272 273 275 278 276 274 273 275 275 274 274 276 276 277 278 281 282 283 284 285 285
269 269 268 268 268 268 267 267 267 268 268 272 274 275 275 276 276 276 273 272 272 272 271 271 271 270 269 269 268 269 269 269 270 270 270 270 270 271 271 271 272 273 275 276 276 276 276 273 271 270 272 272 271 273 274 275 273 272 272 272 273 273 273 273 274 275 276 278 275 274 272 273 275 274 273 275 276 276 277 279 282 283 283 284 285
269 269 268 266 265 265 266 266 266 266 267 272 274 275 275 275 275 275 273 271 271 270 270 270 270 269 268 269 269 268 269 269 269 271 271 271 272 272 272 271 272 272 272 272 272 273 273 273 273 272 273 273 274 274 275 275 275 275 275 274 274 274 275 275 275 276 275 276 275 273 269 273 275 273 274 275 276 276 276 279 281 282 283 284 284
267 267 266 266 266 265 265 263 263 265 266 272 273 274 274 275 275 273 271 270 269 269 270 270 270 270 270 270 269 269 269 270 272 274 274 273 273 272 271 272 272 273 273 275 277 278 276 276 276 275 275 276 278 277 277 277 277 277 277 277 276 275 273 271 270 272 272 275 275 273 271 272 274 273 273 275 275 274 275 275 279 281 282 282 283
268 267 266 265 264 264 263 263 263 264 264 269 272 273 273 274 274 270 269 269 269 269 269 270 270 270 271 270 270 270 270 270 273 275 276 276 274 273 272 272 273 273 273 275 278 279 280 280 280 281 281 281 281 281 281 281 279 278 276 273 271 272 270 269 270 271 272 274 274 274 273 271 274 274 273 274 274 274 274 275 275 279 281 282 283
267 266 265 264 263 264 263 263 264 262 262 267 271 272 273 274 273 270 269 268 268 269 269 270 271 271 271 272 272 271 271 271 274 276 278 276 274 274 273 272 272 272 273 275 275 276 279 279 279 279 279 279 279 279 279 279 279 278 273 270 271 272 270 270 269 270 271 272 273 275 272 272 273 273 272 273 273 273 274 274 275 276 279 279 280
266 265 265 264 263 263 263 263 266 264 262 265 270 271 272 273 272 270 269 268 268 268 269 269 270 271 271 272 273 273 273 274 277 277 278 276 274 274 273 273 272 272 273 274 273 274 274 274 274 274 274 275 274 273 273 277 277 277 274 273 272 271 270 270 270 270 269 271 274 275 271 271 272 273 273 271 269 273 275 274 274 274 275 275 275
Wind_Speed
4 5 5 4 3 4 4 3 3 4 4 5 5 3 2 2 3 3 3 4 4 3 1 2 2 2 3 2 2 1 1 2 2 3 3 3 1 1 4 3 3 3 4 6 8 9 10 11 11 12 13 14 14 13 12 12 13 12 5 6 9 8 9 7 6 3 1 1 1 3 3 4 4 4 5 5 6 6 7 2 1 3 4 4 4
5 4 6 4 5 4 6 6 3 2 4 4 2 2 3 5 4 1 2 4 4 3 2 1 2 1 1 2 3 3 1 1 1 1 3 4 3 1 2 2 3 4 5 5 6 6 8 8 10 10 11 12 13 13 12 11 13 12 8 7 9 3 7 8 6 5 5 3 2 1 2 3 3 4 5 4 5 6 8 8 4 4 4 5 5
5 6 6 4 6 6 7 6 6 6 5 6 5 5 5 5 4 4 3 4 3 2 4 4 1 2 1 1 2 3 2 2 2 2 2 3 4 3 1 1 0 3 5 8 8 9 8 9 8 8 9 9 10 12 13 13 13 13 14 13 12 10 5 9 9 9 7 5 4 2 1 2 3 5 5 5 4 4 7 8 6 7 7 7 8
8 7 7 7 7 7 7 7 6 6 6 6 6 6 5 5 4 4 3 3 2 3 2 3 1 2 1 1 1 1 2 2 2 1 1 2 3 4 2 0 3 2 3 5 8 10 11 12 12 10 9 9 9 9 10 10 11 12 14 14 15 13 13 11 6 9 9 7 6 5 3 1 3 4 5 5 6 4 3 4 7 8 7 6 8
7 8 9 8 8 8 7 7 6 6 6 6 6 4 4 4 2 2 3 2 1 1 1 3 2 1 0 1 3 2 1 1 1 2 2 2 3 3 5 5 3 2 2 3 6 8 11 13 13 13 12 12 12 10 9 8 8 9 10 12 12 13 15 13 12 6 7 7 7 6 5 3 3 4 5 5 6 7 6 4 5 6 7 8 7
6 8 8 8 8 8 7 7 6 7 7 7 7 6 6 6 6 5 3 4 3 4 5 5 6 6 5 2 2 2 2 2 1 2 4 4 5 4 6 7 8 6 4 5 4 5 10 13 13 13 12 12 13 13 12 11 10 10 10 10 11 12 13 14 11 11 9 8 8 7 6 6 5 5 4 5 6 7 8 7 6 7 7 8 9
9 7 8 8 8 8 8 6 6 7 8 7 7 6 6 6 7 7 6 7 7 7 8 7 7 7 6 6 4 4 6 6 1 4 5 5 6 5 7 7 7 7 7 5 4 6 8 11 13 13 13 14 14 14 14 13 12 12 11 11 12 12 12 12 13 12 9 9 13 11 7 8 7 6 4 5 5 7 8 11 9 7 8 8 8
9 8 8 7 7 7 6 6 6 7 8 8 7 6 4 7 9 8 7 7 8 9 7 7 6 6 6 7 5 3 5 5 6 5 6 8 8 7 7 8 7 7 7 7 7 6 10 10 13 15 12 13 15 16 15 15 15 14 13 13 13 13 13 13 13 12 12 12 14 11 6 9 9 7 6 6 6 8 8 8 10 11 9 10 10
10 9 8 8 8 8 7 7 6 6 7 7 7 6 6 6 8 8 7 6 8 8 7 7 7 6 5 4 5 3 5 6 6 7 6 7 5 6 7 6 5 6 6 7 6 6 9 13 13 15 10 11 15 15 16 16 16 16 15 15 15 14 14 14 14 13 13 11 12 12 14 9 7 8 8 8 8 10 7 8 10 9 10 11 9
9 8 8 8 7 7 8 9 8 8 8 8 8 7 7 6 6 8 9 8 7 7 8 8 7 6 5 4 3 6 7 6 5 5 6 5 6 7 7 6 6 5 6 5 5 6 6 9 12 11 12 14 17 16 16 15 16 15 15 16 16 16 16 16 15 15 14 14 12 12 12 13 13 12 12 11 12 13 11 11 11 11 11 10 11
8 7 8 8 9 9 9 9 8 8 9 9 9 9 9 7 7 7 8 8 7 6 6 6 6 5 4 4 4 6 6 5 4 5 7 7 8 7 7 8 7 7 6 6 7 7 8 7 8 8 8 14 16 18 18 17 15 14 16 16 16 16 16 16 16 16 15 15 14 14 13 14 14 14 14 14 13 14 14 11 13 13 13 13 12
10 9 9 9 9 9 9 10 9 8 9 10 9 9 9 8 6 8 7 7 7 7 8 7 5 5 5 5 6 7 6 7 8 7 7 7 7 7 9 8 8 8 8 8 8 8 8 7 7 7 7 9 13 15 17 17 13 18 16 16 16 15 15 15 16 15 15 15 15 15 14 14 14 14 14 15 15 16 15 13 14 15 15 14 13
10 9 9 9 9 9 9 9 9 9 9 9 8 9 8 8 6 5 6 6 8 9 10 6 7 8 7 5 6 7 9 8 6 5 6 7 7 7 8 9 8 8 7 7 7 8 8 9 8 7 7 7 8 11 12 13 12 17 17 16 17 16 15 16 16 15 15 15 15 15 15 15 15 16 16 15 16 16 16 16 17 18 16 15 15
9 9 10 9 9 9 10 9 9 9 8 8 9 9 10 10 7 6 4 7 7 9 10 6 7 4 4 4 3 2 5 8 9 6 6 6 7 7 8 9 9 8 6 7 7 7 9 8 8 8 8 8 7 7 7 8 8 14 17 17 17 16 16 15 15 16 16 16 16 16 16 16 16 16 16 16 17 17 17 18 16 18 19 17 17
10 10 9 9 9 9 8 8 9 8 9 10 9 10 9 10 9 7 6 5 5 7 11 9 6 5 2 3 3 2 3 9 7 7 7 6 6 7 7 9 10 9 6 8 7 6 8 9 8 8 8 8 7 7 7 7 9 13 14 15 16 16 16 16 16 16 16 16 16 16 16 17 17 17 17 17 17 17 18 18 19 18 18 20 18
10 10 9 10 9 9 8 8 8 7 7 8 9 9 9 9 9 9 5 8 6 8 8 10 8 7 6 2 3 2 4 5 8 5 6 6 9 5 6 6 9 9 6 8 8 6 7 8 8 7 8 8 7 6 7 6 9 10 10 12 13 17 17 16 16 17 17 17 16 16 16 16 17 16 17 17 17 18 18 18 19 19 20 18 17
10 10 9 9 8 8 8 8 8 7 7 8 8 8 8 7 9 9 9 6 8 5 8 9 11 8 4 4 5 5 1 4 5 5 8 8 7 9 4 7 8 7 5 7 7 5 6 7 7 6 7 8 7 6 6 5 6 5 6 10 13 13 14 17 18 18 17 17 17 17 16 16 16 17 17 17 17 18 18 19 19 20 19 19 19
8 8 8 7 8 8 7 8 8 8 8 7 7 8 9 9 8 7 9 9 5 7 8 8 8 9 8 5 2 1 3 4 5 5 7 3 6 8 5 7 5 6 4 6 6 6 6 6 6 7 6 7 7 7 5 5 4 4 3 6 15 14 15 16 18 18 19 19 18 18 17 17 17 17 17 16 17 17 18 18 19 19 19 19 20
8 8 8 8 8 8 8 7 7 7 7 7 8 8 7 8 7 8 8 7 7 8 7 7 6 7 7 7 7 5 3 3 3 3 6 3 3 6 5 7 7 6 4 5 5 5 6 5 6 6 6 7 7 6 6 6 6 6 5 9 13 13 13 15 16 17 18 19 20 19 19 18 18 17 17 17 17 17 16 17 18 19 19 19 20
8 8 8 8 8 8 8 7 8 7 7 7 7 7 7 7 8 8 7 7 7 7 6 6 7 6 6 6 6 7 6 5 4 4 4 8 9 2 2 6 6 6 5 7 5 5 7 7 6 6 6 6 7 5 5 5 5 6 5 9 12 13 13 14 16 17 17 18 20 20 20 20 19 18 18 18 18 17 17 16 16 17 18 19 19
7 7 7 8 8 8 7 8 8 8 7 7 7 7 8 7 8 9 8 8 7 6 6 7 6 6 5 6 5 6 5 4 4 5 3 5 6 6 10 4 2 4 7 5 5 7 7 7 6 6 5 6 7 5 6 5 6 6 9 10 10 12 13 15 17 18 18 18 19 20 20 20 19 19 19 18 18 18 17 17 17 16 16 17 18
7 6 7 7 7 7 8 8 8 7 7 7 7 8 7 7 7 7 7 7 7 7 7 6 6 6 6 5 5 5 4 4 3 6 3 2 6 11 9 13 13 5 5 6 8 8 8 6 6 5 6 6 7 7 4 5 6 6 8 8 8 10 13 16 20 20 20 20 20 20 20 20 20 20 19 19 18 18 18 17 17 18 17 17 17
6 7 7 7 8 7 7 8 7 7 7 7 7 6 7 6 6 6 7 8 6 6 7 6 6 7 7 6 6 5 3 3 4 5 3 4 5 5 7 6 8 14 4 6 6 7 7 6 7 6 6 6 7 7 5 5 6 8 12 7 7 9 13 19 21 20 21 22 22 22 21 20 20 20 20 19 19 18 18 18 18 18 18 18 18
6 7 7 6 6 7 6 6 7 7 7 6 6 6 5 6 6 6 6 6 6 6 5 6 6 6 5 6 6 5 5 4 4 5 5 6 5 7 7 8 6 4 7 7 6 6 4 7 7 6 7 6 7 5 6 6 7 12 10 8 9 13 18 20 21 22 23 23 22 23 22 22 21 21 20 20 20 20 20 19 19 18 18 18 19
6 6 6 6 5 6 7 7 7 7 6 6 6 6 5 6 6 5 6 6 6 5 5 5 4 5 4 4 5 5 5 4 5 4 5 4 5 7 6 4 8 11 6 6 4 3 6 5 5 6 6 6 6 7 7 6 6 9 12 7 12 12 15 19 22 24 24 23 23 23 23 22 22 21 22 22 22 22 22 22 21 20 19 19 19
6 5 5 5 6 6 6 6 6 6 6 6 6 5 5 6 5 6 5 5 5 5 4 4 4 4 4 4 5 6 5 5 4 5 5 5 6 5 8 6 5 10 7 4 5 7 2 3 5 4 6 6 7 6 6 8 8 11 15 12 11 14 15 20 23 24 24 23 23 23 22 21 22 23 23 24 24 24 24 23 23 23 22 21 20
6 5 5 5 5 6 6 6 5 6 5 6 6 6 5 5 5 5 5 4 5 4 4 4 4 5 4 4 5 5 6 5 4 5 3 4 4 5 6 11 9 6 9 6 6 4 9 8 4 6 6 5 5 7 9 9 11 17 19 13 10 14 16 21 23 24 24 24 24 23 23 23 24 25 25 25 25 24 24 24 24 24 24 23 22
5 6 5 4 5 5 5 6 5 5 5 5 5 5 5 4 4 4 5 4 4 5 3 3 3 4 4 4 4 4 5 5 4 5 4 4 5 5 5 5 8 12 9 8 7 7 4 6 8 2 4 5 5 5 8 11 9 13 12 9 9 10 12 18 23 24 24 24 23 24 24 24 24 24 25 25 25 24 24 24 25 24 24 23 22
5 4 5 4 5 5 5 5 5 5 5 5 4 4 4 4 4 3 4 4 4 4 4 2 2 3 4 4 4 5 5 4 4 4 5 4 5 5 6 5 5 7 9 10 11 8 5 4 6 3 6 11 11 7 7 5 8 11 9 9 9 9 11 21 25 24 23 24 24 25 25 24 24 24 25 25 25 24 24 25 25 25 25 24 24
5 5 5 5 5 5 5 5 5 5 5 4 4 4 4 4 4 3 2 3 4 4 4 3 3 2 3 4 4 5 5 4 4 4 4 5 5 6 5 5 4 6 6 9 14 8 8 5 3 8 7 6 9 11 9 9 11 11 8 9 9 8 13 18 21 24 26 27 27 26 26 25 24 25 25 25 25 25 25 25 25 25 25 25 26
5 5 5 5 5 5 5 4 4 5 4 4 4 4 3 3 3 3 3 3 3 4 5 3 3 3 4 4 4 4 5 4 4 4 4 4 6 5 6 5 5 5 6 7 12 10 2 9 8 2 9 9 6 9 10 9 10 12 8 7 7 13 20 14 20 22 24 25 25 24 24 25 25 25 25 25 26 26 26 27 26 26 25 26 26
5 5 5 5 4 5 4 5 4 4 4 3 3 2 3 2 3 3 3 3 3 4 4 4 3 4 4 4 4 4 5 4 4 5 4 4 5 6 6 5 5 5 5 6 9 17 12 8 11 7 4 10 9 9 12 9 8 13 10 10 10 14 11 10 13 18 20 21 22 24 25 24 25 25 25 25 26 27 26 26 26 26 26 25 25
5 5 4 4 4 4 4 4 4 3 3 3 2 2 3 3 3 2 2 2 3 4 4 4 4 4 3 4 4 5 4 4 4 4 5 5 5 6 5 6 6 5 4 5 9 14 15 9 7 8 4 7 9 4 8 11 11 10 11 12 12 10 9 8 9 14 22 23 24 24 25 26 26 25 25 27 27 25 25 26 26 26 25 25 25
4 4 4 4 4 4 4 4 4 3 2 2 1 2 1 2 3 2 2 2 3 4 4 4 4 4 3 4 5 5 4 4 4 5 6 6 6 6 6 5 6 6 4 6 9 10 16 14 11 6 6 5 9 5 7 12 13 11 13 12 9 9 10 10 10 11 20 23 24 23 23 23 23 24 24 24 24 24 25 25 25 26 25 25 26
4 4 4 4 4 3 3 3 3 2 2 1 0 0 1 1 2 3 3 3 3 4 4 4 4 4 4 4 4 4 4 4 4 5 5 6 5 6 5 4 6 6 5 5 7 11 13 15 13 11 6 4 8 10 8 8 10 10 11 12 12 10 10 12 11 10 17 21 21 22 25 25 25 24 25 25 25 25 25 25 25 26 26 25 26
4 3 3 3 3 3 3 3 3 2 2 1 0 0 0 1 1 2 3 3 3 4 4 4 4 4 4 4 4 4 4 5 5 5 5 5 5 5 6 5 5 6 6 5 6 8 10 14 15 11 8 8 7 8 8 9 9 9 9 11 11 11 11 10 11 9 11 21 25 26 26 26 26 25 25 26 26 26 25 25 25 26 28 28 27
4 4 3 3 2 3 3 3 2 2 2 1 0 0 1 1 1 2 3 3 4 4 4 4 4 4 4 4 4 4 4 5 5 5 5 5 6 5 5 5 6 7 6 6 7 7 9 13 14 11 8 7 7 9 8 9 9 8 8 10 11 11 11 9 7 9 16 23 22 23 23 23 23 24 24 25 25 26 25 25 25 25 26 26 25
4 4 4 3 2 2 3 3 3 1 1 0 0 1 2 1 2 3 3 3 3 3 4 4 4 4 4 4 4 4 4 5 6 5 5 5 4 5 6 7 7 7 7 7 7 8 9 11 11 14 10 8 9 7 7 8 9 11 9 9 8 8 9 11 10 9 9 9 8 10 14 17 19 24 24 23 23 24 25 26 26 24 23 23 24
4 4 4 3 2 2 1 3 1 2 1 1 2 2 1 1 1 2 3 3 3 3 3 3 4 4 4 4 4 4 5 5 5 5 5 5 6 7 6 7 7 7 7 7 7 8 9 11 12 10 11 9 8 11 9 8 10 9 11 11 10 8 8 10 12 8 7 10 11 17 16 17 20 17 19 22 23 24 24 24 25 27 26 24 24
4 4 4 4 1 3 1 3 2 1 1 2 2 1 1 2 2 2 3 3 3 3 3 4 4 4 4 4 4 4 5 4 4 4 4 7 7 7 5 7 10 10 10 10 9 9 10 10 11 12 11 11 10 9 10 10 9 7 6 8 12 12 10 9 8 10 9 10 10 8 8 11 11 15 19 21 22 23 24 23 24 25 28 26 25
4 3 3 3 2 3 2 3 2 2 3 3 2 2 0 1 1 2 2 3 3 3 3 3 3 4 4 4 4 4 5 9 14 13 13 12 9 8 7 7 10 11 11 10 9 10 10 10 12 11 11 11 10 11 11 10 10 10 9 8 10 10 10 10 9 8 9 11 10 9 8 7 9 9 8 8 10 18 17 22 19 21 23 26 27
4 4 3 2 3 3 3 3 3 3 3 2 3 4 4 3 2 3 3 3 3 3 4 4 3 3 4 4 4 10 14 14 14 14 14 15 15 11 9 8 9 9 8 7 7 7 9 10 10 11 12 11 11 11 12 13 11 10 9 9 11 12 11 11 10 7 8 10 11 11 9 6 9 10 7 9 8 9 10 10 10 15 18 23 24
5 4 3 3 3 3 3 3 4 4 3 2 6 5 4 4 1 3 3 4 4 4 3 3 4 4 4 4 4 7 8 9 8 13 15 15 16 17 17 17 14 11 9 8 8 7 8 9 10 10 10 14 14 13 13 14 12 11 9 9 11 11 12 12 13 10 4 9 11 12 11 6 9 11 9 8 9 8 9 10 19 23 23 23 23
5 4 3 4 4 3 3 3 3 4 3 5 6 4 4 4 4 3 3 4 4 4 4 4 4 4 5 5 5 4 4 5 7 6 9 14 16 16 17 16 16 17 16 12 10 9 8 9 10 9 11 12 14 13 13 13 12 11 10 11 11 12 13 12 12 13 9 10 12 12 15 6 8 9 10 9 9 7 9 16 24 25 26 25 25
5 6 5 4 4 3 3 4 4 3 2 5 5 4 4 4 5 4 3 4 4 5 5 6 5 4 4 6 5 5 5 12 9 7 7 8 11 16 16 16 15 16 16 18 18 14 12 12 11 12 11 14 15 13 11 12 12 14 13 12 11 11 11 14 11 13 13 8 12 12 14 8 7 10 10 9 8 7 9 15 23 24 24 25 25
6 5 4 5 4 4 3 3 3 3 2 5 4 4 5 5 5 5 4 4 5 5 5 6 6 5 4 5 6 6 5 6 7 8 8 8 8 8 8 9 10 13 17 20 22 23 19 13 13 14 14 12 14 14 14 14 15 14 13 14 11 13 12 12 15 13 11 8 10 12 14 10 7 9 10 10 8 9 9 14 23 23 24 25 25
7 7 6 5 4 4 3 2 2 3 3 6 6 5 5 5 5 4 3 4 4 5 4 4 4 4 4 5 6 6 7 6 6 11 11 11 10 9 9 10 10 11 11 11 11 11 11 10 13 14 16 15 15 17 15 14 14 13 12 14 15 15 14 13 11 10 10 4 9 9 14 11 8 11 10 9 8 9 8 13 21 23 23 24 24
4 4 4 5 4 4 3 3 3 5 5 7 6 5 5 5 6 2 2 3 4 4 5 5 5 5 5 6 5 6 7 7 11 18 16 13 11 11 12 12 11 9 9 12 18 19 17 14 12 13 13 15 20 17 16 14 13 12 11 11 9 9 10 10 11 8 9 7 7 9 11 11 8 12 11 7 8 10 10 9 14 21 22 23 24
7 6 6 5 4 5 5 4 5 5 4 6 6 6 5 6 4 1 3 3 3 4 5 5 5 6 6 7 7 7 9 10 14 19 19 19 11 11 11 12 10 10 10 10 16 22 24 26 27 27 29 28 24 24 24 27 20 16 12 11 11 10 11 12 9 7 8 6 5 8 9 11 8 10 12 9 9 9 9 10 10 14 22 22 22
8 7 5 5 4 5 5 6 6 5 5 6 7 6 7 7 5 3 2 3 4 4 4 5 5 5 6 11 11 10 11 11 16 19 20 16 10 10 12 13 13 13 12 10 7 9 19 23 24 23 23 24 25 26 25 25 26 21 13 15 13 10 11 10 13 9 9 6 8 7 8 9 9 9 12 11 10 6 8 8 10 10 14 15 23
6 6 6 6 5 5 5 6 8 7 4 5 8 7 8 7 4 3 3 3 4 4 4 4 4 5 7 8 13 12 11 13 19 18 20 16 11 11 12 12 11 10 9 11 13 13 11 10 10 11 13 15 14 13 14 24 25 21 14 13 11 10 12 11 11 11 11 5 4 3 8 9 10 8 8 12 10 4 6 5 5 7 10 10 11
Wind_Direction
19 35 26 66 43 68 86 40 58 74 134 94 113 136 147 84 75 60 72 80 64 23 61 53 65 47 54 2 358 353 6 10 19 353 343 342 79 104 87 63 44 22 13 8 0 359 356 354 348 346 347 347 357 0 360 358 354 330 310 328 328 9 116 174 185 167 159 204 49 12 341 356 344 340 352 353 352 343 325 277 120 60 14 349 341
32 46 64 47 81 75 86 95 84 73 88 97 91 86 81 84 80 62 82 76 66 13 21 156 97 63 30 1 350 339 350 34 19 13 353 342 355 79 55 69 359 353 359 358 4 2 8 4 2 359 353 351 348 357 8 3 358 346 313 302 308 108 170 181 200 202 194 200 209 251 14 343 335 329 324 344 351 339 331 317 323 323 336 337 336
30 42 46 30 49 41 40 49 48 30 37 68 60 67 64 57 45 20 48 83 101 61 14 346 105 86 64 3 323 343 356 8 12 10 14 356 355 340 330 3 356 333 347 348 353 3 4 9 11 5 2 359 352 354 355 356 351 349 351 343 338 333 235 205 196 203 197 205 224 205 214 289 301 322 325 333 345 348 347 345 324 323 317 324 312
31 32 47 47 41 40 33 39 36 30 35 47 56 54 60 51 34 16 359 43 50 65 12 329 323 105 71 311 306 339 350 0 347 1 10 7 340 329 4 319 291 301 347 342 0 5 6 6 2 2 2 2 359 352 351 350 346 344 344 349 344 338 343 356 243 203 198 207 220 216 198 233 313 298 303 312 322 315 314 328 330 315 311 342 339
46 46 48 50 52 48 39 32 28 27 27 26 37 41 58 65 37 322 358 7 351 74 317 323 320 92 130 59 359 322 306 359 332 5 25 354 345 356 7 354 359 346 354 340 10 14 16 8 360 358 359 359 357 355 351 346 342 339 336 338 342 344 347 357 0 230 215 220 232 215 201 227 252 265 287 315 320 316 307 302 300 302 310 317 312
49 55 58 56 52 48 39 29 18 28 38 35 37 28 29 29 19 2 343 341 16 36 18 355 12 18 19 357 339 326 14 338 336 55 36 21 15 28 11 11 20 25 6 352 36 19 17 9 360 357 358 1 357 353 352 349 346 340 336 333 339 344 343 349 354 357 317 262 249 234 211 216 233 254 280 312 315 298 295 287 284 294 300 299 304
35 47 56 56 55 51 43 35 29 36 46 39 37 31 40 38 25 25 2 16 26 32 25 15 12 10 354 351 351 354 359 327 339 49 41 21 21 25 32 37 22 7 356 20 23 5 10 3 1 3 6 6 2 357 352 351 350 347 343 343 343 336 338 337 339 342 353 349 333 264 226 217 227 244 265 280 297 290 289 298 293 277 286 285 296
41 44 57 54 59 57 51 41 38 45 45 41 42 29 26 52 36 30 26 28 24 19 14 2 354 346 332 335 332 359 343 2 43 43 39 35 33 27 36 36 25 16 17 17 19 8 1 355 2 7 7 6 3 1 1 357 354 350 349 348 345 343 343 340 338 334 343 346 349 350 267 225 225 232 243 257 282 302 297 289 296 301 292 291 287
48 48 57 54 56 55 41 37 27 42 46 38 39 29 29 48 51 39 40 32 26 12 356 348 336 321 318 323 330 359 12 38 43 49 44 48 33 32 47 42 30 22 13 27 17 5 3 5 10 11 13 357 1 3 4 3 1 359 355 353 350 349 348 347 342 340 340 338 342 336 342 328 245 241 248 261 270 270 277 291 296 287 287 286 288
56 52 58 54 55 52 45 37 33 35 39 37 30 19 31 43 64 53 45 31 18 9 353 340 325 313 308 303 328 32 51 46 39 45 63 51 40 47 42 27 23 18 19 28 18 10 10 4 7 3 359 359 360 2 1 2 4 3 2 358 356 353 354 351 348 346 340 340 336 334 325 327 330 307 292 273 267 288 291 294 279 269 274 277 281
48 49 57 54 53 52 48 40 38 38 41 38 31 23 19 25 54 56 49 39 23 4 338 320 314 303 314 332 27 65 52 43 32 33 58 57 54 49 33 19 13 7 12 16 15 15 12 10 6 358 355 352 355 357 357 0 5 2 355 353 354 356 355 355 354 350 347 342 338 332 324 322 317 318 319 313 295 277 280 277 272 280 283 281 277
36 41 48 48 48 46 51 45 41 42 42 40 30 25 21 15 31 64 53 28 20 6 357 349 340 355 347 352 71 84 58 28 37 45 55 55 59 55 43 17 19 8 14 18 13 14 14 6 1 356 353 351 351 351 353 358 4 357 353 355 355 355 355 354 353 351 349 346 342 337 332 324 317 313 310 308 310 317 304 274 273 275 279 283 279
39 42 48 50 50 49 50 46 43 45 45 42 33 30 26 29 18 58 72 43 24 13 5 356 15 3 1 47 75 87 73 45 39 46 57 60 56 58 46 30 12 10 16 16 9 16 11 1 356 353 352 352 348 347 348 352 359 356 357 360 359 354 352 353 351 350 350 347 344 341 338 333 328 322 315 311 310 305 305 305 286 271 276 274 271
44 46 50 51 52 49 48 46 44 44 47 43 39 34 31 31 27 19 42 65 46 21 10 10 26 16 341 334 39 29 53 45 26 2 56 63 60 60 50 35 16 3 8 17 10 16 12 358 352 353 350 350 345 346 347 351 348 357 1 3 359 355 356 352 352 352 351 350 347 345 342 339 337 332 327 320 313 306 305 300 298 291 277 272 278
48 47 50 47 49 50 46 45 47 43 45 40 36 37 30 30 28 32 16 29 54 30 27 34 24 334 310 57 2 16 353 17 2 15 14 46 49 56 50 38 19 3 3 17 5 15 17 358 348 350 349 346 344 344 345 345 350 359 359 360 355 359 360 357 357 357 356 352 350 346 343 342 338 335 332 329 324 317 309 303 300 296 299 288 268
50 50 52 49 48 49 46 45 43 44 51 51 41 37 31 29 26 27 30 42 22 21 27 26 34 14 23 22 316 51 360 359 338 309 16 25 42 42 46 36 29 359 9 18 0 9 14 358 346 343 344 339 338 340 343 343 350 352 351 351 341 3 0 359 0 360 358 356 353 350 346 343 340 335 333 331 327 325 321 317 310 305 301 299 298
48 49 51 51 49 49 51 49 49 40 45 51 46 37 33 30 29 30 31 44 33 22 13 24 29 32 61 25 5 31 39 290 322 288 14 352 7 9 18 34 30 357 358 14 353 352 9 353 339 336 335 335 328 331 332 336 345 340 350 342 347 4 4 0 0 359 357 354 351 350 347 344 341 338 335 331 329 326 323 320 318 315 309 304 299
52 52 53 52 52 49 51 52 50 44 42 46 46 40 31 29 22 34 29 23 56 38 30 9 26 25 33 69 109 90 312 309 50 319 351 314 17 341 349 25 12 349 349 9 345 336 356 345 330 325 329 326 323 323 324 328 328 335 343 346 351 356 2 0 357 354 351 350 348 346 343 340 337 335 333 332 331 328 324 320 319 317 313 302 296
53 52 51 52 53 49 50 51 52 52 46 49 47 42 35 31 20 29 33 28 30 46 36 14 0 20 18 18 20 16 8 52 340 306 328 325 30 331 349 358 351 338 348 355 331 336 330 328 321 312 320 318 316 315 326 324 327 324 345 339 336 343 351 356 353 347 344 340 340 341 339 337 335 333 329 328 326 326 324 321 318 316 316 313 303
59 52 51 51 52 51 49 50 50 45 47 51 50 43 42 34 31 28 29 36 36 42 27 21 48 356 3 15 13 3 7 31 43 28 296 305 322 312 0 343 347 324 350 334 321 329 319 315 310 305 305 312 307 305 321 320 330 323 310 311 317 327 341 347 346 342 337 332 331 332 332 332 331 330 330 327 324 321 319 317 316 315 313 312 311
57 60 53 52 52 53 50 50 48 43 41 43 43 43 44 43 34 30 27 25 34 34 40 18 29 23 8 3 13 9 353 4 40 17 336 317 296 339 326 325 324 321 335 317 323 317 305 295 292 291 296 302 301 300 312 322 330 323 308 299 307 321 334 337 337 336 330 326 323 322 322 323 324 324 325 325 323 321 317 314 312 311 311 310 308
53 52 55 53 55 54 53 50 49 46 43 38 38 41 38 39 40 39 33 33 22 34 33 18 22 12 25 20 19 360 358 6 9 360 326 338 325 327 332 333 335 336 311 336 326 314 304 297 290 286 294 293 297 298 309 321 320 316 307 307 318 330 332 329 330 328 326 321 317 314 313 314 315 317 317 318 318 318 318 316 312 309 308 306 306
58 50 53 50 50 52 56 54 51 50 47 41 35 38 42 39 38 40 38 36 25 33 26 22 21 17 10 19 16 17 6 21 349 347 350 321 323 305 315 312 313 320 323 321 299 293 302 313 296 289 286 289 288 296 307 308 311 306 308 306 312 321 323 324 324 324 321 317 313 310 308 308 309 311 311 311 311 311 312 314 314 313 310 306 303
61 57 50 48 54 54 53 56 52 48 47 46 38 32 43 45 38 44 40 32 26 38 31 25 23 14 11 5 7 1 357 27 357 349 349 320 325 306 313 312 293 238 300 305 290 269 313 306 294 294 292 290 290 291 303 311 306 305 307 310 315 317 322 323 323 321 317 314 312 310 307 306 308 309 309 308 307 306 306 308 309 309 308 308 306
65 67 59 59 61 58 55 53 49 45 43 43 38 32 31 53 44 42 43 31 22 24 43 19 26 21 357 345 0 352 341 349 12 350 334 334 331 318 299 306 301 311 307 315 305 316 285 287 300 305 300 307 313 313 308 311 307 305 319 328 327 327 327 324 320 316 312 310 310 309 308 307 306 306 307 307 305 304 304 304 304 303 303 304 305
89 78 76 76 65 66 66 60 56 53 45 38 39 31 29 48 46 40 40 33 14 17 26 22 14 8 354 10 348 338 324 346 354 360 331 347 327 322 312 309 292 299 304 315 311 334 286 309 307 311 322 313 309 315 330 331 336 327 332 329 326 320 318 315 312 311 310 309 309 309 309 308 306 305 304 304 304 303 302 301 302 302 302 300 300
91 87 71 71 80 75 66 63 58 55 51 44 34 28 21 39 39 39 29 30 8 7 10 23 9 357 348 4 342 328 326 325 354 329 333 318 316 312 323 321 316 299 310 308 308 288 292 312 311 319 289 313 339 344 341 338 326 324 322 322 315 310 306 307 309 309 309 309 308 307 306 306 305 303 302 301 300 298 299 300 300 300 300 300 298
90 88 80 76 76 83 74 67 62 56 54 50 39 30 15 39 32 26 37 8 6 352 338 24 0 348 343 340 355 317 315 317 334 325 322 326 317 305 313 312 306 312 313 303 310 295 302 314 318 250 342 347 335 333 319 317 311 307 311 310 310 308 302 303 307 307 307 308 307 306 304 302 300 300 300 300 297 296 296 296 296 296 296 295 293
114 107 101 89 80 78 84 79 66 64 60 51 40 29 15 34 29 28 47 7 359 332 334 357 334 341 341 329 323 311 304 314 329 325 321 310 300 295 291 281 285 298 310 308 297 303 305 309 300 319 353 328 322 319 313 299 307 315 312 309 303 302 302 305 307 309 310 309 309 306 304 301 301 301 300 298 296 295 294 294 295 295 296 295 294
115 111 99 92 83 79 77 78 74 66 66 57 43 27 20 16 17 18 67 40 353 331 326 336 321 331 324 324 315 310 299 316 306 312 309 300 298 296 292 296 301 287 287 295 295 292 291 284 259 306 322 321 317 316 320 314 310 313 307 308 307 301 306 317 320 318 312 307 305 305 304 302 300 300 299 297 295 295 295 294 294 294 295 296 295
99 96 93 87 83 85 85 73 76 75 60 59 50 27 11 29 8 23 7 22 348 322 305 319 304 331 309 303 300 300 301 302 307 307 304 308 305 304 300 295 288 276 278 281 293 285 274 300 291 299 307 314 320 315 312 313 313 318 318 314 317 321 324 318 312 305 301 302 304 303 302 301 298 297 297 298 298 296 295 295 295 295 296 296 295
98 96 99 98 94 90 88 83 70 72 69 43 47 24 8 23 18 8 338 354 327 313 304 312 318 305 292 297 297 299 298 301 303 302 308 309 304 298 291 285 279 272 266 277 270 283 296 289 295 308 325 314 322 316 307 311 321 330 326 323 319 319 312 308 300 301 307 309 307 305 305 302 300 299 297 295 296 296 296 295 294 295 297 297 297
107 102 100 102 101 105 92 92 87 81 75 59 10 36 20 10 352 335 321 324 314 302 311 310 311 314 310 306 302 296 298 309 300 309 308 297 294 289 288 288 286 277 283 279 283 287 291 288 291 302 331 319 308 321 327 326 329 331 326 320 320 315 313 313 318 319 317 313 310 307 304 303 302 300 300 299 299 297 297 296 296 296 296 296 297
103 108 106 105 101 96 103 97 100 92 78 94 24 53 11 0 333 325 322 319 310 300 309 305 306 308 313 307 301 299 297 301 312 309 296 297 292 293 285 285 286 292 286 288 282 283 289 301 297 301 318 326 308 347 343 324 320 327 320 317 318 321 320 319 313 309 310 308 304 301 302 305 308 310 311 311 308 304 299 296 295 295 294 294 294
99 110 123 112 106 112 112 123 117 116 118 106 50 89 316 301 305 302 315 316 301 294 297 291 295 299 310 300 291 295 304 316 302 291 292 290 287 286 290 298 293 289 282 270 282 285 288 290 298 307 320 339 318 321 329 316 314 321 318 317 317 317 313 309 304 301 301 305 313 321 324 321 318 315 312 311 309 306 304 304 301 297 295 292 292
113 109 103 116 124 121 134 129 132 144 119 106 119 331 246 275 287 294 295 296 288 284 279 283 290 292 287 294 287 296 302 297 291 293 288 286 295 299 300 295 295 297 295 285 275 284 293 296 297 305 318 328 316 315 323 315 310 313 313 306 306 305 302 300 297 300 316 323 321 320 320 319 317 316 316 314 312 310 305 301 298 297 296 296 295
134 130 134 129 135 134 138 132 125 131 133 149 145 292 307 289 279 281 284 278 276 276 278 281 286 292 291 283 288 294 298 298 294 293 294 302 297 304 304 313 310 303 302 301 298 295 292 289 294 299 317 317 315 312 312 312 309 303 300 298 300 301 301 301 317 322 320 317 314 312 312 312 313 312 309 306 303 302 304 304 303 300 297 297 298
143 147 147 143 136 142 142 137 138 138 123 128 192 223 244 281 288 280 272 273 272 282 291 286 281 285 284 285 284 289 293 290 293 291 297 297 314 315 316 310 307 303 299 298 295 292 288 287 294 302 311 317 313 300 311 311 309 311 307 300 301 307 314 318 314 312 307 304 307 309 311 311 309 310 312 311 310 308 304 302 300 306 321 324 322
137 140 133 122 140 131 147 130 139 144 143 215 210 230 261 319 323 303 305 315 315 307 292 295 305 295 291 289 291 289 285 283 286 292 297 307 310 304 303 301 300 296 293 290 293 292 291 292 293 295 303 309 313 313 315 312 308 307 311 313 311 311 306 301 304 300 301 300 301 306 307 310 313 313 312 316 316 315 314 310 306 311 314 315 314
138 144 146 142 166 143 170 141 172 134 206 227 230 168 64 27 346 326 324 305 295 293 295 295 291 290 292 296 291 288 285 280 280 285 295 298 292 287 289 297 301 300 299 299 300 298 297 298 297 303 305 308 313 305 306 308 304 298 295 309 309 309 303 296 293 306 307 301 302 299 301 303 299 306 312 311 310 309 308 309 310 311 311 312 311
134 126 126 129 160 158 160 156 185 195 201 230 197 114 104 322 290 286 283 281 290 287 286 291 295 298 296 291 285 288 293 294 298 298 298 298 301 301 298 295 295 295 292 291 292 296 296 295 298 300 302 304 306 310 310 309 307 305 306 299 292 292 296 300 299 295 296 298 296 295 298 299 303 298 291 290 294 303 303 303 303 301 302 305 305
133 133 130 155 186 180 175 187 189 205 216 224 177 189 208 196 221 272 287 284 279 286 294 292 291 288 289 290 297 308 306 303 300 300 300 301 301 300 302 302 297 292 285 283 283 281 287 289 292 300 299 298 303 304 302 299 295 294 293 293 294 300 299 291 288 288 294 292 295 299 299 304 297 291 285 286 287 295 296 297 289 295 297 299 300
146 137 140 187 193 194 177 196 199 205 212 223 212 224 246 280 292 280 277 289 287 290 288 293 296 297 297 302 305 297 297 295 297 298 300 303 304 302 300 298 296 293 292 289 283 279 281 277 282 281 283 292 296 296 295 295 292 288 290 291 290 296 298 302 304 299 260 293 302 301 296 299 295 295 291 286 291 288 290 287 294 303 304 303 301
145 139 170 200 195 179 179 195 206 222 214 221 225 244 267 280 288 281 280 284 294 292 287 289 292 301 303 302 293 292 296 302 303 307 308 305 304 304 304 304 304 302 300 300 300 296 288 286 283 272 282 281 290 294 293 291 287 285 282 284 285 287 291 290 291 293 303 312 305 303 296 297 286 288 294 294 293 292 289 302 309 309 307 306 305
147 159 190 188 178 181 178 203 215 227 202 240 240 256 273 282 285 292 284 282 287 285 291 294 295 295 302 304 305 308 309 310 309 305 301 301 300 301 303 305 306 304 301 295 290 287 288 286 285 286 282 290 290 287 281 279 280 283 285 282 281 276 277 282 282 288 300 316 301 294 291 306 305 296 294 297 295 293 294 300 301 301 303 305 306
160 167 187 178 174 179 186 199 215 235 236 246 255 265 270 277 284 291 277 282 279 283 287 294 294 299 305 306 310 306 305 304 302 300 296 289 288 288 279 272 271 271 274 276 281 287 286 278 276 276 275 272 277 278 275 275 280 280 282 280 279 281 276 271 284 288 293 297 288 296 291 302 302 299 292 295 297 289 286 290 299 302 303 303 304
169 177 176 171 183 171 173 189 214 248 251 253 256 264 268 278 282 288 289 281 281 281 286 283 286 296 295 296 294 295 297 296 290 298 300 301 294 284 276 270 259 257 258 261 262 260 262 259 260 260 269 270 269 271 271 270 266 270 273 278 279 279 280 282 275 273 280 271 289 294 289 300 304 292 289 293 293 291 292 293 296 299 302 303 304
160 151 163 161 177 174 185 194 210 239 250 252 256 259 267 277 281 297 268 271 272 275 280 280 282 284 288 288 287 289 286 284 296 302 300 298 292 282 277 273 272 262 249 246 260 265 271 274 267 266 263 261 266 266 269 269 270 266 264 267 271 273 280 288 288 292 281 276 260 275 283 290 298 289 292 292 295 296 296 292 296 302 304 305 304
167 169 173 166 167 174 194 194 205 235 243 256 256 257 267 269 278 249 250 253 263 272 275 283 287 287 290 287 280 283 291 292 296 301 301 301 288 283 284 285 280 277 270 263 267 273 279 287 291 293 293 299 308 311 311 311 312 309 307 302 294 297 297 294 287 283 279 289 270 266 276 286 294 294 296 300 297 294 299 300 301 303 303 304 307
174 175 164 159 173 180 194 205 205 213 233 248 256 265 263 259 247 225 240 252 266 269 279 279 284 286 288 296 295 291 289 285 293 300 304 307 301 298 292 289 289 286 286 283 277 282 292 297 301 303 306 308 308 308 308 307 306 307 304 296 295 297 290 286 292 291 290 286 283 272 277 280 301 302 299 299 293 273 282 286 292 297 307 314 310
163 154 155 162 183 198 205 209 217 215 224 245 258 261 255 249 237 216 228 247 257 269 277 277 286 292 288 275 284 293 294 295 301 305 307 309 298 291 294 298 303 311 317 323 314 308 308 310 307 308 303 301 301 299 296 297 297 297 292 289 293 286 284 285 286 295 291 278 286 340 307 300 301 297 308 307 295 261 232 264 299 327 312 303 304